Temperature
20 20 20 20 20 20 20 20 20 20 20 20 20 20 20 19 19 19 19 19 19 19 19 19 19 19 19 19 19 19 19 18 18 18 18 18 18 18 18 18 18 18 18
21 20 20 20 20 20 20 20 20 20 20 20 20 20 20 19 19 19 19 19 19 19 19 19 19 19 19 19 19 19 18 18 18 18 18 18 18 18 18 18 18 18 18
21 21 21 20 20 20 20 20 20 20 20 20 20 20 20 19 19 19 19 19 19 19 19 19 19 19 19 19 18 18 18 18 18 18 18 18 18 18 18 18 18 18 18
21 21 21 20 20 20 20 20 20 20 20 20 20 20 19 19 19 19 19 19 19 19 19 19 19 19 19 18 18 18 18 18 18 18 18 18 18 18 18 18 18 18 18
21 21 21 20 20 20 20 20 20 20 20 20 20 19 19 19 19 19 19 19 19 19 19 19 19 19 19 18 18 18 18 18 18 18 18 18 18 18 18 18 18 18 18
21 21 21 20 20 20 20 20 20 20 20 19 19 19 19 19 19 19 19 19 19 19 19 19 19 19 18 18 18 18 18 18 18 18 18 18 18 18 18 18 18 18 18
21 21 21 21 20 20 20 20 20 20 20 19 19 19 19 19 19 19 19 19 19 19 19 19 19 19 18 18 18 18 18 18 18 18 18 18 18 18 18 18 18 18 17
21 21 21 21 20 20 20 20 20 20 20 19 19 19 19 19 19 19 19 19 19 19 19 19 18 19 18 18 18 18 18 18 18 18 18 18 18 18 18 18 18 17 17
21 21 21 21 20 20 20 20 20 20 19 19 19 19 19 19 19 19 19 19 19 19 19 19 18 18 18 18 18 18 18 18 18 18 18 18 18 18 18 18 18 18 17
21 21 21 21 20 20 20 20 20 20 19 19 19 19 19 19 19 19 19 19 19 19 19 18 18 18 18 18 18 18 18 18 18 18 18 18 18 18 18 18 18 18 17
21 21 21 21 20 20 20 20 20 19 19 19 19 19 19 19 19 19 19 19 19 19 19 18 18 18 18 18 18 18 18 18 18 18 18 18 18 18 18 18 18 18 17
21 21 21 21 20 20 20 20 20 20 19 19 19 19 19 19 19 19 19 19 19 19 19 18 18 18 18 18 18 18 18 18 18 18 18 18 18 18 18 18 18 18 17
21 21 21 21 20 20 20 20 20 20 19 19 19 19 19 19 19 19 19 19 19 19 19 19 19 18 19 19 19 18 18 18 18 18 18 18 18 18 18 18 18 18 18
21 21 21 20 20 20 20 20 20 20 19 19 19 19 19 19 19 19 19 19 19 19 19 19 19 19 19 19 19 18 19 19 18 18 18 18 18 18 18 18 18 18 18
21 21 20 20 20 20 20 20 20 20 20 19 19 19 19 19 19 19 19 19 19 19 19 19 19 19 19 19 19 19 19 19 19 18 18 18 18 18 18 18 18 18 18
21 21 21 20 20 20 20 20 20 20 20 20 20 19 19 19 19 19 19 19 19 19 19 19 19 19 19 19 19 19 19 19 19 18 18 18 18 18 18 18 18 18 18
22 21 21 21 20 20 20 20 20 20 20 20 20 19 19 19 19 19 19 19 19 19 19 19 19 19 19 19 19 19 18 18 18 18 18 18 18 18 18 18 18 18 18
22 21 21 21 21 20 20 20 20 20 20 20 20 19 19 19 19 19 19 19 19 19 19 19 19 19 19 19 19 19 18 18 18 18 18 18 18 18 18 18 18 18 18
22 21 21 21 21 20 20 20 20 20 20 20 20 20 19 19 19 19 19 19 19 19 19 19 19 19 19 19 19 19 19 18 18 18 18 18 18 18 18 18 18 18 18
22 21 21 21 21 20 20 20 20 20 20 20 20 20 20 19 19 19 19 19 19 19 19 19 19 19 19 19 19 19 19 19 19 19 18 18 18 18 18 18 18 18 18
22 21 21 21 21 20 20 20 20 20 20 19 19 19 19 19 19 19 19 19 19 19 19 19 19 19 19 19 19 18 18 18 19 18 18 18 18 18 18 18 18 18 18
22 22 21 21 21 20 20 20 20 20 19 19 19 19 19 19 19 19 19 19 19 19 19 19 19 19 18 18 18 18 18 18 18 18 18 18 18 18 18 18 18 18 18
22 22 21 21 21 21 20 20 20 20 19 19 19 19 19 19 19 19 19 19 19 19 19 19 19 19 19 19 18 18 18 18 18 18 18 18 18 18 18 18 18 18 18
22 22 21 21 21 21 20 20 20 20 19 19 19 19 19 19 19 19 19 19 19 19 19 19 19 19 19 19 19 18 18 18 18 18 18 18 18 18 18 18 18 18 18
22 22 21 21 21 20 20 20 20 20 19 19 19 19 19 19 19 19 19 19 19 19 19 19 19 19 19 19 19 19 19 18 18 18 18 18 18 18 18 18 18 18 17
22 21 21 21 21 20 20 20 20 19 19 19 19 19 19 19 19 19 19 19 19 19 19 19 19 19 19 18 18 18 18 18 18 18 18 17 17 17 18 18 18 17 17
Wind_Speed
0 1 7 8 8 8 8 8 8 8 8 8 9 9 10 11 11 11 12 13 14 14 15 16 17 17 17 17 16 16 17 16 17 17 17 16 15 15 14 14 13 11 12
4 4 7 8 8 8 8 8 9 9 9 9 10 10 11 11 12 12 12 12 13 14 15 15 16 16 17 17 16 16 16 17 17 17 16 15 14 14 13 13 12 10 11
5 4 7 9 9 9 8 8 9 9 10 10 10 11 11 11 12 12 12 12 13 15 15 16 16 16 16 16 16 16 16 16 16 16 15 12 12 13 12 12 12 11 11
6 5 8 10 9 9 9 9 9 10 10 11 11 11 11 11 11 11 12 12 14 14 15 16 16 15 15 15 15 15 15 15 15 14 11 10 10 12 12 11 11 10 10
5 6 8 11 10 10 10 9 9 10 11 11 12 12 12 11 11 11 11 12 14 14 15 15 14 14 14 14 14 14 14 14 14 12 9 10 9 11 12 11 10 10 10
6 6 9 11 10 10 9 9 9 9 10 11 11 11 12 11 11 11 10 12 14 14 14 14 13 13 13 13 13 13 13 13 12 10 10 9 9 10 11 10 10 10 10
6 5 8 10 9 9 9 8 8 9 10 10 10 11 11 11 11 10 12 14 15 14 14 13 13 12 12 12 12 12 11 12 10 9 9 9 9 10 10 10 10 10 10
7 5 7 9 10 9 9 8 8 8 9 10 10 10 10 10 10 10 12 14 15 14 13 13 13 12 12 12 12 11 10 11 10 9 9 9 11 11 11 10 10 10 10
6 5 4 6 7 8 8 8 8 9 9 9 10 10 11 10 11 11 12 14 14 13 13 13 12 12 11 11 11 10 10 11 9 8 9 8 11 11 11 10 10 10 10
6 5 4 4 4 5 6 8 8 9 9 10 10 10 11 10 11 12 12 14 13 12 12 11 11 11 10 10 9 9 9 10 9 8 8 9 12 11 11 11 10 10 10
6 4 3 3 3 4 5 6 7 8 9 8 8 9 8 6 7 8 11 12 12 11 10 10 9 9 8 7 7 7 7 7 8 7 8 11 12 11 11 11 10 10 9
5 4 3 3 3 3 5 5 4 5 6 5 5 5 5 5 6 8 10 11 11 10 9 8 8 7 5 4 4 4 4 7 7 6 8 12 12 12 11 11 10 10 9
6 5 4 4 3 3 3 4 3 4 4 4 5 5 5 4 4 4 4 5 5 6 4 4 3 2 3 3 2 3 4 5 6 6 9 12 12 12 12 11 10 10 9
5 4 4 4 4 3 3 3 3 3 3 3 4 5 5 3 3 3 3 3 2 2 3 2 2 2 2 3 3 3 4 5 6 6 9 12 12 12 12 11 11 10 10
6 5 5 5 5 4 4 3 4 3 3 4 4 5 5 3 3 2 2 2 2 3 2 2 2 2 2 2 3 4 4 5 6 7 8 12 13 12 12 12 12 11 11
6 6 5 6 5 5 4 3 3 3 3 4 4 4 5 4 3 3 3 2 2 3 3 3 2 2 2 2 3 3 4 5 6 6 7 9 12 12 12 12 12 11 11
7 6 5 6 5 5 4 3 3 3 4 3 3 4 6 5 4 3 3 2 1 2 3 2 1 2 2 3 2 2 3 4 6 6 7 7 8 10 10 11 11 11 11
7 6 5 6 6 5 4 3 3 3 4 3 3 4 5 5 5 3 3 2 1 2 2 2 2 2 2 2 2 2 2 3 4 5 6 6 6 7 9 11 11 11 12
8 7 6 6 5 4 4 3 3 3 3 3 3 3 3 4 5 3 2 1 1 2 2 2 2 2 2 1 1 1 1 2 3 4 4 5 6 7 7 9 12 12 12
7 7 6 6 5 4 4 4 3 3 2 2 2 2 3 3 4 3 2 2 2 2 1 1 1 1 1 2 1 1 0 1 2 3 4 4 5 7 7 7 7 8 10
7 7 6 6 4 4 3 3 2 2 1 1 1 2 3 3 3 3 2 2 2 2 1 1 1 1 1 1 2 2 2 1 0 2 2 3 3 5 5 5 5 6 6
8 7 7 6 5 4 3 2 2 2 1 1 1 2 2 3 3 3 3 2 2 2 2 1 1 1 0 1 2 2 1 3 2 1 1 3 3 3 3 5 5 6 5
7 7 7 6 6 5 4 3 3 3 2 2 1 1 1 2 3 3 3 2 1 2 1 1 1 2 1 1 1 3 2 2 2 2 1 1 2 2 3 3 5 5 6
7 7 6 6 6 5 5 4 4 3 2 1 1 1 0 1 2 3 2 2 2 2 1 1 1 1 2 1 1 1 2 4 2 1 2 1 1 1 2 3 3 4 6
7 6 6 5 5 5 5 5 4 3 2 1 1 1 1 1 1 1 2 2 1 1 1 1 1 1 1 1 1 1 0 1 2 2 1 2 2 1 1 2 1 2 4
6 5 6 6 5 5 5 4 5 4 3 3 2 1 0 1 0 0 1 1 1 1 1 1 1 2 1 1 1 1 2 2 2 2 2 2 2 2 2 1 1 2 3
Wind_Direction
70 111 101 97 99 98 97 93 90 96 105 110 109 110 111 114 115 121 128 133 137 140 143 147 148 147 146 145 145 146 147 147 147 145 143 143 145 147 146 143 140 138 142
145 129 110 100 99 99 94 90 88 92 99 106 112 111 112 115 117 121 124 133 139 141 142 147 147 146 144 145 144 143 144 144 145 145 144 143 146 150 151 149 145 144 147
127 123 114 102 99 99 96 90 88 91 95 100 110 112 113 115 119 120 122 127 137 140 141 145 144 144 144 143 144 144 144 142 143 143 141 138 142 149 154 153 151 149 153
126 122 113 105 100 99 96 91 93 93 94 98 105 109 111 115 117 119 120 125 132 136 137 141 143 143 144 145 143 142 142 143 144 141 138 137 142 149 152 155 155 153 155
118 120 116 107 104 102 98 95 95 95 94 98 102 106 109 112 113 116 123 128 131 132 135 136 139 140 141 143 142 140 140 142 141 137 133 136 143 151 154 154 155 155 156
121 125 119 111 108 104 99 97 99 96 96 98 102 102 106 107 110 113 122 131 130 131 133 135 137 139 141 143 144 145 142 140 134 134 137 139 145 150 151 153 156 159 158
129 127 123 114 111 106 102 101 103 101 98 99 100 101 104 106 109 110 116 129 131 130 131 131 133 136 140 136 137 140 140 138 132 135 140 142 147 150 150 154 159 160 156
133 126 123 118 112 108 106 105 109 109 106 105 102 101 103 107 108 110 116 126 130 131 130 129 129 126 122 122 126 130 132 135 133 136 139 146 151 153 153 154 155 157 156
124 122 114 120 116 109 106 107 115 116 113 111 108 104 107 106 104 109 119 125 128 129 130 129 129 126 124 124 127 132 133 136 132 135 146 151 156 155 153 153 153 153 155
119 124 129 124 119 120 119 113 123 126 120 118 113 111 107 105 100 104 117 123 127 129 129 131 130 129 127 128 131 133 138 140 138 142 149 158 158 157 158 157 157 157 156
126 125 128 125 122 128 125 118 122 126 125 124 118 115 110 108 107 106 116 123 128 133 136 137 135 134 133 132 135 134 132 135 140 147 156 163 162 161 162 161 163 162 161
143 148 145 144 136 128 120 113 121 121 121 117 114 115 113 114 120 121 124 128 132 136 139 141 143 141 138 140 144 133 128 139 145 153 162 167 168 165 164 162 163 165 165
150 145 148 145 129 117 100 111 116 123 118 116 119 120 117 112 117 114 114 114 122 129 133 135 133 133 136 143 148 139 141 143 148 160 170 173 172 169 168 168 168 171 172
129 133 127 137 126 123 118 108 112 118 119 124 132 131 122 109 112 115 114 118 114 121 121 122 134 142 151 156 146 142 143 148 150 160 173 178 179 176 176 178 180 180 180
114 117 115 117 115 112 111 105 103 108 122 130 127 132 128 119 120 121 123 130 134 138 137 145 152 155 156 159 154 146 146 147 151 160 172 179 182 183 185 186 186 188 189
117 115 118 115 115 111 109 106 101 104 112 116 117 127 128 127 124 121 120 118 135 152 146 145 155 151 138 131 134 141 149 153 156 162 171 179 184 187 190 191 192 196 198
132 123 123 121 112 109 109 111 101 104 113 108 110 117 118 119 118 115 112 102 116 126 124 118 107 97 106 113 126 145 155 152 159 163 168 176 187 195 197 197 198 202 206
133 128 130 127 118 113 109 100 97 96 107 110 114 122 121 120 122 115 97 93 96 98 102 105 102 91 90 113 129 161 159 162 168 171 172 180 190 200 208 209 209 210 214
139 133 125 122 126 123 110 100 93 91 101 104 107 116 121 111 113 115 105 107 114 96 98 117 107 121 126 134 147 164 170 174 175 178 185 191 197 208 211 218 220 222 222
134 129 128 127 127 117 100 84 70 70 76 81 97 116 122 115 112 114 109 96 101 92 82 106 124 119 155 170 143 106 227 214 188 184 192 191 201 210 214 222 225 229 229
134 130 129 128 131 121 110 104 96 94 88 81 87 108 119 120 120 113 104 89 97 116 149 133 116 105 100 109 83 36 357 343 232 197 189 181 197 205 203 214 220 225 228
149 147 143 145 143 141 140 140 136 133 127 139 110 93 125 130 134 125 117 115 116 110 79 76 100 105 169 139 125 102 13 353 344 256 201 198 208 205 206 213 214 215 216
154 159 157 156 149 148 139 114 92 68 45 45 50 54 50 111 113 112 117 124 126 132 132 134 128 136 185 278 160 150 152 217 299 333 296 220 201 200 214 216 214 212 203
165 159 149 151 148 150 139 132 133 134 143 190 178 156 343 86 114 132 132 136 137 136 149 206 164 150 145 242 290 201 181 170 161 305 333 320 268 213 219 225 221 202 194
156 149 143 140 140 142 140 144 140 135 152 146 112 100 70 44 90 133 131 132 133 144 169 185 143 121 148 176 197 210 120 114 146 164 258 312 338 325 267 234 194 185 181
142 142 144 142 145 148 146 145 146 145 143 128 128 135 73 29 39 226 129 130 156 178 184 182 166 141 157 160 172 158 159 164 176 164 197 242 285 302 306 275 221 197 194
Height
1503 1501 1499 1497 1496 1494 1492 1490 1488 1486 1484 1484 1484 1485 1485 1485 1486 1486 1487 1488 1489 1491 1493 1496 1498 1501 1504 1507 1510 1512 1515 1517 1519 1521 1523 1526 1528 1529 1531 1532 1533 1534 1535
1503 1501 1500 1498 1497 1495 1493 1491 1489 1486 1484 1483 1483 1484 1485 1486 1486 1487 1487 1488 1489 1491 1493 1496 1499 1501 1504 1507 1510 1513 1515 1517 1519 1522 1524 1526 1528 1529 1531 1532 1534 1534 1535
1504 1502 1501 1499 1497 1496 1494 1492 1490 1488 1485 1483 1483 1484 1486 1487 1487 1488 1488 1488 1489 1491 1493 1496 1499 1502 1505 1508 1510 1513 1516 1518 1520 1522 1524 1526 1528 1529 1530 1532 1534 1534 1535
1504 1503 1501 1500 1498 1497 1495 1494 1492 1490 1487 1485 1484 1485 1487 1488 1488 1488 1488 1489 1490 1492 1495 1497 1500 1503 1506 1508 1511 1513 1516 1518 1521 1523 1525 1527 1528 1530 1531 1532 1533 1534 1535
1505 1504 1503 1501 1500 1498 1497 1495 1494 1492 1490 1488 1488 1488 1489 1489 1490 1489 1489 1490 1491 1494 1496 1499 1501 1504 1506 1509 1511 1514 1516 1519 1521 1523 1525 1527 1528 1530 1531 1532 1533 1534 1535
1506 1505 1504 1502 1501 1500 1498 1497 1495 1494 1493 1492 1491 1491 1491 1491 1491 1490 1488 1489 1493 1496 1499 1501 1503 1506 1507 1509 1511 1514 1517 1519 1522 1524 1526 1527 1528 1529 1530 1531 1532 1533 1534
1507 1506 1505 1504 1502 1501 1500 1498 1497 1496 1495 1495 1494 1494 1494 1493 1492 1490 1486 1487 1493 1498 1500 1502 1504 1507 1508 1509 1511 1515 1518 1520 1523 1524 1526 1527 1528 1529 1530 1531 1532 1533 1534
1508 1507 1507 1505 1504 1502 1501 1500 1499 1498 1498 1497 1497 1497 1496 1495 1493 1491 1489 1491 1496 1500 1502 1504 1506 1509 1510 1511 1513 1516 1519 1521 1523 1525 1527 1528 1529 1530 1530 1531 1532 1533 1534
1510 1509 1508 1507 1506 1504 1503 1501 1500 1500 1500 1500 1500 1499 1499 1498 1495 1493 1492 1495 1499 1503 1505 1508 1510 1511 1513 1515 1517 1519 1521 1523 1524 1526 1527 1528 1529 1530 1530 1531 1532 1533 1534
1512 1511 1510 1509 1508 1506 1505 1503 1502 1502 1503 1503 1502 1502 1502 1501 1499 1497 1497 1500 1503 1506 1509 1511 1513 1515 1517 1518 1520 1521 1523 1524 1525 1527 1528 1529 1530 1531 1531 1532 1533 1534 1535
1513 1513 1512 1511 1510 1508 1507 1506 1505 1505 1505 1506 1506 1505 1505 1505 1504 1504 1505 1506 1508 1510 1512 1514 1516 1518 1519 1521 1523 1524 1525 1526 1527 1528 1529 1530 1530 1531 1532 1532 1533 1534 1535
1514 1514 1514 1513 1512 1511 1510 1509 1508 1508 1508 1509 1509 1509 1509 1509 1509 1509 1510 1511 1513 1514 1515 1517 1519 1521 1522 1523 1525 1526 1526 1527 1528 1529 1530 1530 1531 1531 1532 1533 1534 1534 1535
1516 1516 1516 1515 1514 1514 1513 1512 1512 1512 1512 1512 1512 1513 1513 1512 1513 1513 1514 1515 1516 1518 1519 1520 1522 1523 1524 1525 1526 1527 1528 1528 1529 1530 1530 1531 1532 1532 1533 1533 1534 1534 1535
1518 1518 1517 1517 1516 1516 1516 1515 1515 1515 1515 1515 1515 1516 1516 1516 1516 1516 1517 1518 1519 1520 1521 1522 1523 1525 1526 1527 1527 1528 1528 1529 1530 1530 1531 1531 1532 1532 1533 1533 1534 1535 1535
1518 1519 1519 1519 1518 1518 1518 1518 1518 1518 1518 1519 1519 1519 1519 1519 1519 1519 1520 1520 1521 1522 1523 1524 1525 1526 1527 1528 1528 1528 1529 1529 1530 1530 1531 1532 1532 1532 1533 1533 1534 1534 1535
1519 1520 1520 1520 1521 1521 1520 1520 1521 1521 1521 1521 1521 1521 1521 1521 1521 1521 1522 1523 1524 1524 1525 1526 1526 1527 1528 1528 1529 1529 1529 1530 1530 1530 1531 1532 1532 1533 1533 1533 1533 1534 1534
1520 1521 1521 1522 1522 1522 1522 1522 1523 1523 1523 1523 1523 1524 1524 1524 1524 1524 1524 1525 1525 1526 1527 1527 1528 1528 1528 1529 1529 1530 1530 1530 1531 1531 1531 1532 1532 1533 1533 1533 1533 1533 1533
1521 1521 1522 1523 1523 1524 1524 1524 1524 1525 1525 1525 1525 1525 1525 1525 1526 1526 1526 1526 1527 1527 1527 1528 1528 1529 1529 1529 1530 1530 1530 1530 1531 1531 1532 1532 1532 1532 1533 1533 1533 1532 1532
1521 1522 1523 1523 1524 1525 1526 1526 1526 1526 1527 1527 1527 1527 1527 1527 1527 1527 1527 1527 1528 1528 1528 1528 1529 1529 1529 1530 1530 1530 1530 1531 1531 1531 1531 1532 1532 1532 1532 1532 1532 1532 1532
1522 1523 1524 1524 1525 1526 1527 1527 1528 1528 1528 1528 1528 1528 1528 1528 1528 1527 1527 1528 1528 1528 1528 1529 1529 1529 1529 1530 1530 1530 1531 1531 1531 1531 1531 1531 1531 1532 1532 1532 1532 1531 1531
1523 1524 1524 1525 1526 1527 1527 1528 1528 1529 1529 1529 1529 1529 1529 1529 1529 1528 1528 1528 1528 1528 1528 1529 1529 1529 1529 1530 1530 1530 1530 1530 1530 1530 1530 1530 1530 1531 1531 1531 1531 1530 1530
1522 1523 1524 1525 1526 1527 1528 1529 1529 1530 1530 1530 1530 1530 1530 1529 1529 1529 1529 1529 1529 1529 1529 1529 1529 1529 1529 1530 1529 1529 1529 1531 1530 1530 1529 1529 1530 1530 1529 1530 1529 1529 1529
1522 1523 1524 1525 1526 1528 1528 1529 1530 1530 1530 1530 1530 1530 1530 1530 1529 1529 1529 1529 1529 1529 1528 1528 1529 1528 1528 1529 1529 1529 1529 1528 1529 1529 1529 1529 1529 1528 1528 1528 1528 1528 1527
1522 1523 1524 1525 1526 1528 1528 1529 1529 1530 1530 1530 1530 1530 1530 1530 1530 1529 1529 1529 1528 1528 1528 1528 1528 1528 1528 1528 1528 1528 1528 1528 1528 1528 1528 1528 1528 1528 1527 1527 1527 1526 1525
1521 1523 1524 1525 1526 1527 1528 1529 1529 1530 1530 1530 1531 1530 1530 1530 1530 1529 1529 1528 1528 1528 1528 1527 1527 1527 1527 1527 1527 1527 1527 1527 1527 1527 1526 1527 1527 1526 1526 1526 1525 1524 1524
1521 1522 1523 1524 1525 1526 1527 1528 1529 1529 1529 1530 1530 1530 1529 1529 1529 1529 1528 1528 1527 1527 1527 1527 1527 1526 1526 1526 1526 1526 1526 1525 1525 1525 1525 1525 1524 1525 1525 1524 1523 1523 1522